Kezdőlap
METAR-TAF:

METAR-TAF

Repülőterek :

Iowa County Airport

Mineral Point, Wisconsin, Amerikai Egyesült Államok

földrajzi szélesség: 42-53-07N, földrajzi hosszúság: 090-13-55W, magasság: 359 m

Jelenlegi meteorológiai megfigyelések

A jelentés 29 perccel ezelõtt készült, 03:55 UTC
Déli szél 8 kt
Hőmérséklet 16°C
Páratartalom 55%
Légköri nyomás 1007 hPa
Látótávolság: 16.1 km
Derült ég

METAR: KMRJ 140355Z AUTO 17008KT 10SM CLR 16/07 A2974 RMK AO2 PWINO

Idő: 23:24 (04:24 UTC)


TAF: hiányzik

Meteorológiai megfigyelések és előrejelzések több, mint 4000 repülőtéren (METAR és TAF jelentéseket).

A térképen piros és sárga pontok jelzik az elérhető meteorológiai állomásokat.

Mozgassa az egeret a pont fölött, hogy megjelenjen az állomás neve.

Azután kattintson az időjárási megfigyelések és előrejelzések megtekintéséhez.

A térkép megváltoztatása: kattintson a fekete keresztel jelölt zöld gombra ráközelítéshez, a vonallal jelölt zöld gombra távolításhoz, vagy a zöld nyilakra a szomszédos térképek eléréséhez.


METAR-TAF: